Regional Weather Roundup
Issued by NWS

Home | Current Version | Previous Version | Graphics & Text | Print | Product List | Glossary On
Versions: 1 2 3 4 5 6 7 8 9 10 11 12 13 14 15 16 17 18 19 20 21 22 23 24 25 26 27 28 29 30 31 32 33 34 35 36 37 38 39 40 41 42 43 44 45 46 47 48 49 50
000
ASUS43 KOAX 040810
RWRNE

WEATHER ROUNDUP FOR NEBRASKA
NATIONAL WEATHER SERVICE OMAHA NE
300 AM CDT FRI SEP 04 2015

NOTES: SATELLITE DATA IS BEING USED TO AUGMENT CLOUD COVER ABOVE
       12000 FEET.
       "FAIR" INDICATES FEW OR NO CLOUDS BELOW 12,000 FEET WITH NO
       SIGNIFICANT WEATHER AND/OR OBSTRUCTIONS TO VISIBILITY.

  * THESE STATIONS DO NOT REPORT WEATHER SUCH AS RAIN...SNOW OR FOG.

NEZ001>004-019>022-054>056-040900-
NEBRASKA PANHANDLE

CITY           SKY/WX    TMP DP  RH WIND       PRES   REMARKS
SCOTTSBLUFF    CLEAR     61  57  87 E6        29.86S
ALLIANCE       MOCLDY    58  51  78 S5        29.85F
CHADRON        CLOUDY    71  55  56 SW7       29.78F
KIMBALL        CLEAR     54  51  92 W7        29.92S
SIDNEY         CLEAR     54  51  90 SW5       29.90F
$$

NEZ057>060-069>072-079>082-040900-
SOUTHWEST NEBRASKA

CITY           SKY/WX    TMP DP  RH WIND       PRES   REMARKS
NORTH PLATTE   CLOUDY    68  61  78 SE9       29.79R
IMPERIAL       MOCLDY    68  63  84 W6        29.83R
LEXINGTON      CLOUDY    72  64  76 N5        29.82S
MCCOOK         PTCLDY    77  58  51 SE8       29.78F
OGALLALA       MOCLDY    65  61  87 SW5       29.82R
$$

NEZ005>010-023>029-035>040-094-040900-
NORTH CENTRAL NEBRASKA

CITY           SKY/WX    TMP DP  RH WIND       PRES   REMARKS
VALENTINE      CLOUDY    69  61  75 W10       29.81R
AINSWORTH      TSTM      72  64  76 W14       29.83R
BROKEN BOW     CLOUDY    73  65  75 SE6       29.81F
O`NEILL        MOCLDY    76  65  67 S10       29.80R
ORD            CLOUDY    74  64  71 SE5       29.81R
THEDFORD       DRIZZLE   69  63  81 NE6       29.77F
$$

NEZ041-046>049-061>064-073>077-083>087-040900-
SOUTH CENTRAL NEBRASKA

CITY           SKY/WX    TMP DP  RH WIND       PRES   REMARKS
GRAND ISLAND   MOCLDY    75  64  68 S17       29.81F THUNDER
AURORA         MOCLDY    74  65  73 S12G17    29.82S
HASTINGS       CLOUDY    78  62  57 S13G22    29.82S THUNDER
HEBRON         MOCLDY    76  64  65 S12       29.84S
HOLDREGE       CLOUDY    76  60  57 S5        29.82S
KEARNEY *      CLOUDY    75  61  60 S13       29.81R
YORK           MOCLDY    75  66  73 S13       29.84S
$$

NEZ011>018-030>034-042>045-040900-
NORTHEAST NEBRASKA

CITY           SKY/WX    TMP DP  RH WIND       PRES   REMARKS
NORFOLK        MOCLDY    77  65  66 S15       29.81S
ALBION         PTCLDY    72  64  77 SE7       29.82S
BLAIR          CLEAR     74  66  76 S9        29.87S
COLUMBUS *     MOCLDY    75  63  64 S9        29.82F
FREMONT        PTCLDY    76  66  72 SE8       29.85S
TEKAMAH        PTCLDY    72  69  90 SE7       29.85S
WAYNE          MOCLDY    73  68  83 S8        29.83S
$$

NEZ050>053-065>068-078-088>093-040900-
SOUTHEAST NEBRASKA

CITY           SKY/WX    TMP DP  RH WIND       PRES   REMARKS
LINCOLN        MOCLDY    78  67  68 S12       29.86S
OMAHA EPPLEY   PTCLDY    75  68  78 SE15      29.87S
BEATRICE       CLOUDY    76  67  74 S13       29.86S
FALLS CITY     MOCLDY    72  68  87 S8        29.89S
NEBRASKA CITY  MOCLDY    73  66  79 S8        29.89S
PLATTSMOUTH    PTCLDY    72  66  82 SE9       29.88S
$$

NEZ044-045-051>053-067-040900-
OMAHA AREA

CITY           SKY/WX    TMP DP  RH WIND       PRES   REMARKS
OMAHA EPPLEY   PTCLDY    75  68  78 SE15      29.87S
BLAIR          CLEAR     74  66  76 S9        29.87S
FREMONT        PTCLDY    76  66  72 SE8       29.85S
MILLARD        PTCLDY    74  69  83 SE6       29.86S
OFFUTT AFB     PTCLDY    73  68  84 E7        29.86S
PLATTSMOUTH    PTCLDY    72  66  82 SE9       29.88S
WAHOO          FAIR      71  68  89 SE6       29.85S
$$



USA.gov is the U.S. government's official web portal to all federal, state and local government web resources and services.